Regional Weather Roundup
Issued by NWS Charleston, WV

Home | Current Version | Previous Version | Graphics & Text | Print | Product List | Glossary On
Versions: 1 2 3 4 5 6 7 8 9 10 11 12 13 14 15 16 17 18 19 20 21 22 23 24 25 26 27 28 29 30 31 32 33 34 35 36 37 38 39 40 41 42 43 44 45 46 47 48 49 50
000
ASUS41 KRLX 190210
RWRRLX
West Virginia Regional Weather Roundup
National Weather Service Charleston WV
900 PM EST SUN FEB 18 2018

Note: "fair" indicates few or no clouds below 12,000 feet with no
significant weather and/or obstructions to visibility.

WVZ003-190300-
Northern Panhandle of West Virginia

CITY           SKY/WX    TMP DP  RH WIND       PRES   REMARKS
WHEELING         N/A     34  26  72 E8        30.27F
$$

WVZ009-190300-
Northwest West Virginia

CITY           SKY/WX    TMP DP  RH WIND       PRES   REMARKS
PARKERSBURG      N/A     37  29  72 E6        30.27F
$$

WVZ006-190300-
Western West Virginia

CITY           SKY/WX    TMP DP  RH WIND       PRES   REMARKS
HUNTINGTON       N/A     42  30  62 E6        30.21F
$$

WVZ015-190300-
West Central West Virginia

CITY           SKY/WX    TMP DP  RH WIND       PRES   REMARKS
CHARLESTON       N/A     40  33  76 NE3       30.22S
$$

WVZ022-031-190300-
North Central West Virginia

CITY           SKY/WX    TMP DP  RH WIND       PRES   REMARKS
CLARKSBURG       N/A     38  28  67 N3        30.27F
MORGANTOWN       N/A     37  27  67 CALM      30.28F
$$

WVZ025-035-042-045-190300-
Southern West Virginia

CITY           SKY/WX    TMP DP  RH WIND       PRES   REMARKS
BECKLEY          N/A     44  26  49 SE17G25   30.26R
LOGAN            N/A     48  28  46 CALM      30.20F
BLUEFIELD        N/A     44  26  49 S8G21     30.29R
LEWISBURG        N/A     43  26  51 S3        30.35R
$$

WVZ047-190300-
Northern Mountains of West Virginia

CITY           SKY/WX    TMP DP  RH WIND       PRES   REMARKS
ELKINS           N/A     37  27  67 SE7       30.27S
$$

WVZ052-190300-
Eastern Panhandle of West Virginia

CITY           SKY/WX    TMP DP  RH WIND       PRES   REMARKS
MARTINSBURG      N/A     36  27  69 CALM      30.41R
PETERSBURG       N/A     33  29  84 CALM      30.37R
$$



USA.gov is the U.S. government's official web portal to all federal, state and local government web resources and services.